OBJECT E, 56747

Orbit data source: Space-Track

You're viewing an Uncataloged Satellite

Recently launched and/or uncataloged satellites may have evolving metadata. Metadata may include but not limited to: Owner, Maufacturer, Bus, Motor, and Mission.

OBJECT E, 56747 is a South Korean satellite in SSO that was launched on Thu, 25 May 2023 UTC via an NURI launch vehicle from the Naro Space Center, South Korea (NSC). Unknown objects in Earth's orbit typically refer to objects detected orbiting the Earth but have not yet been identified or cataloged. These objects could be anything from previously untracked satellites, spent rocket stages, debris from satellite collisions, or even natural meteoroids temporarily captured by Earth's gravity.

Loading next visibility...
Identifier
56747, 2023-072E
Orbit
SSO
Country
Flag of KRKR / SKOR
Related business
None
Manufacturer
Unknown
Mission
Operational Commercial Technology
Bus & Motor
Unknown
Mass
Unknown
Launch date (UTC)
2023-05-25 (3 years ago)
Launch vehicle
NURI
Launch site
Naro Space Center, South Korea (NSC)
Object type
Unknown
Shape & HBR
Box, 0.1 m
Radar Cross Section
0.035 m², Medium (>0.1 m² and < 1m²)

Expand to show TLE details & history
Last TLE update: 11 hours ago

TLE from 11 hours ago
0 OBJECT E
1 56747U 23072E   26171.55878675  .00022555  00000-0  42956-3 0  9999
2 56747  97.5050  20.9236 0002722 354.8828   5.2394 15.48212301170907
Epoch: 2026-06-20T13:24Z
TLE epoch observation values (Epoch: 2026-06-20T13:24:39.175Z)
Latitude
0.00001°
Longitude
-89.01131°
Altitude
423.238 km
Speed
7.658 km/s
True Right ascension
01h 23m 41s
True Declination
0° 00' 00"
Sunlit
Object was in daylight at epoch
Visualization orbit readout
Latitude
Unknown
Longitude
Unknown
Altitude
Unknown
Speed
Unknown
Apparent Right ascension
Unknown
Apparent Declination
Unknown
Sunlit
N/A
Visualization observer readout
Local Sidereal Time
10:59:17
Azimuth
Unknown
Elevation
Unknown
Doppler factor
Unknown
Orbital elements
Apogee altitude
420.738 km
Perigee altitude
417.038 km
Semi-major axis
6,797.025 km
Eccentricity
0.00027
Inclination
97.505°
RAAN
20.9236°
Arg. of periapsis
354.8828°
True anomaly
5.24225°
Mean anomaly
5.2394°
Eccentric anomaly
5.24082°
Mean motion
3.87315 °/min
Orbital period
92.95 mins
BSTAR
0.00042956
Loading maneuver chart data...
Computing Atmospheric mass density...
Loading historical data...
Loading historical data...
Loading historical data...
Loading historical data...
Loading historical data...
Loading historical data...
Loading historical data...

Documentation

Showing up to 5 results
|